Погода в Росоне

Аргентина     43°18′52″S   65°04′40″W
темп.,
°C
ветер,
м/с
пор.,
м/с
влажн.,
%
обл.,
%
осадки,
мм/ч
давл.,
гПа
погр.,
м
8 марта, пн
пн800:00+17ююз1315330 0.0 10151439
03:00+15ююз68340 0.0 1016881
06:00+14ююз23360 0.0 1017299
09:00+15сз22310 0.0 1019347
12:00+19с56280 0.0 1019936
15:00+22с782426 0.0 10171176
18:00+21ссв12133596 0.0 1014713
21:00+18ссв10164389 0.0 1013605
9 марта, вт
вт900:00+19с132052100 0.0 1012610
03:00+19с132047100 0.0 1010586
06:00+18с132049100 0.0 1009501
09:00+20с14204352 0.0 1008756
12:00+24с1519360 0.0 1006772
15:00+28с15183117 0.0 1002889
18:00+31с16182484 0.0 9991724
21:00+27с13203644 0.0 998356
10 марта, ср
ср1000:00+27сз610220 0.0 999154
03:00+24зсз610251 0.0 998152
06:00+23сз6113950 0.0 998217
09:00+23зсз6104375 0.0 1000540
12:00+25з101329100 0.0 10011994
15:00+25з101428100 0.0 10011916
18:00+25зюз141721100 0.0 10012345
21:00+21зюз12192383 0.0 1004850
11 марта, чт
чт1100:00+18з1117320 0.0 1008604
03:00+16зсз58390 0.0 1008237
06:00+16зсз7144196 0.0 1009534
09:00+18з11154291 0.0 10101471
12:00+21зюз10123430 0.0 10101243
15:00+23зюз8103015 0.0 10101539
18:00+24зюз810290 0.0 10091616
21:00+22з69320 0.0 1011169
12 марта, пт
пт1200:00+20зюз57380 0.0 1013124
03:00+18зюз58430 0.0 1014157
06:00+17з58470 0.0 1014142
09:00+18зюз46440 0.0 1015234
12:00+21з23380 0.0 1015842
15:00+23вюв22300 0.0 1015702
18:00+22в77370 0.0 1014305
21:00+21ссв69390 0.0 1015200